[[{"header":{"parameterUnit":"m.s-1","parameterCategory":1,"la1":30.2991,"la2":30.254,"lo1":-89.0895,"lo2":-89.0444,"dy":0.0017,"dx":0.0017,"nx":28,"ny":28,"refTime":"2025-05-31T09:00:00:Z","depth":0,"parameterNumber":2,"parameterNumberName":"U-component_of_WINDS"},"data":[0,0,0,0,0,0,0,0,0,0,0,0,0,0,0,0,0,0,0,0,0,0,0,0,0,0,0,0,0,0,0,0,0,0,0,0,0,0,0,0,0,0,0,0,0,0,0,0,0,0,0,0,0,0,0,0,0,0,-1.2572,-1.2571,0,-1.2496,-1.2496,-1.2495,-1.2371,-1.2369,-1.2366,-1.2364,-1.2289,-1.2289,-1.2289,0,0,0,0,0,0,0,0,0,0,0,0,0,-1.2613,-1.2613,-1.2572,-1.2571,-1.257,-1.2497,-1.2496,-1.2494,-1.2371,-1.2369,-1.2366,-1.2363,-1.2289,-1.2289,-1.2289,0,0,0,0,0,0,0,0,0,0,0,0,0,-1.2572,-1.2613,-1.2572,-1.25,-1.2493,-1.2497,-1.2495,-1.2494,-1.2372,-1.2368,-1.2365,-1.2362,-1.2289,-1.2289,-1.2289,-1.2359,0,0,-1.229,-1.229,0,0,0,0,0,0,0,0,-1.2575,-1.2571,-1.2511,-1.2505,-1.2497,-1.2439,-1.2482,-1.2449,-1.2373,-1.2418,-1.2364,-1.236,-1.2342,-1.2338,-1.2331,-1.2355,-1.2352,-1.229,-1.229,-1.229,-1.229,0,0,0,0,0,0,0,-1.2578,-1.2573,-1.2542,-1.2511,-1.2502,-1.2472,-1.2463,-1.2475,-1.24,-1.2414,-1.2404,-1.2397,-1.2337,-1.2331,-1.2328,-1.2351,-1.229,-1.229,-1.229,-1.229,-1.2429,-1.2433,0,0,0,0,0,0,-1.2591,-1.2577,-1.2545,-1.254,-1.2528,-1.2474,-1.2463,-1.2461,-1.24,-1.2387,-1.24,-1.2392,-1.2333,-1.2328,-1.2325,-1.2402,-1.229,-1.229,-1.229,-1.2426,-1.243,-1.2434,0,0,0,0,0,0,-1.2592,-1.2589,-1.2548,-1.2556,-1.2548,-1.2477,-1.2476,-1.2462,-1.2455,-1.2389,-1.2376,-1.2407,-1.233,-1.2325,-1.2351,-1.2398,-1.229,-1.2291,-1.2422,-1.2427,-1.2432,-1.2558,0,0,0,0,0,0,-1.2594,-1.259,-1.2615,-1.2557,-1.2548,-1.2575,-1.2479,-1.2463,-1.2456,-1.2444,-1.2392,-1.2381,-1.2327,-1.2352,-1.2352,-1.2396,-1.2291,-1.2417,-1.2424,-1.2431,-1.2549,-1.2567,-1.2582,0,0,0,0,0,-1.2596,-1.2654,-1.2617,-1.2614,-1.2578,-1.2577,-1.2572,-1.2508,-1.246,-1.2485,-1.2443,-1.2382,-1.2394,-1.2356,-1.2354,-1.24,-1.2414,-1.2422,-1.243,-1.2542,-1.2563,-1.2582,0,0,0,0,0,0,-1.272,-1.2645,-1.2603,-1.2644,-1.2618,-1.2556,-1.2585,-1.2533,-1.2521,-1.251,-1.2432,-1.2422,-1.2458,-1.2432,-1.2391,-1.2464,-1.2394,-1.2403,-1.248,-1.25,-1.2516,-1.2521,-1.2291,0,0,0,0,0,-1.2752,-1.2757,-1.2692,-1.2734,-1.2723,-1.2657,-1.2655,-1.2608,-1.2578,-1.2566,-1.2526,-1.25,-1.2497,-1.2497,-1.2491,-1.2546,-1.2533,-1.2576,-1.2593,-1.2607,-1.2614,-1.2641,-1.266,-1.2461,-1.2461,-1.246,0,0,-1.2818,-1.2778,-1.2786,-1.2758,-1.2732,-1.274,-1.2649,-1.2661,-1.2666,-1.2568,-1.259,-1.2561,-1.2526,-1.2567,-1.2583,-1.2546,-1.2667,-1.2617,-1.2628,-1.2628,-1.2652,-1.2671,-1.2687,-1.2466,-1.2465,-1.2464,0,0,-1.2942,-1.2913,-1.2944,-1.2921,-1.2883,-1.2839,-1.2847,-1.2794,-1.277,-1.2791,-1.2718,-1.2724,-1.2721,-1.27,-1.2689,-1.2808,-1.2752,-1.2808,-1.2894,-1.2921,-1.2937,-1.295,-1.2992,-1.3008,-1.2817,-1.2817,-1.2817,0,-1.3029,-1.3037,-1.2968,-1.2985,-1.2975,-1.2887,-1.2919,-1.29,-1.2863,-1.2859,-1.2818,-1.2814,-1.2785,-1.2819,-1.2848,-1.2843,-1.285,-1.2813,-1.294,-1.2953,-1.2964,-1.3004,-1.302,-1.2824,-1.2823,-1.2822,-1.2822,0,-1.3146,-1.3153,-1.3184,-1.3149,-1.3143,-1.3168,-1.3104,-1.3106,-1.3061,-1.3022,-1.3045,-1.3008,-1.2993,-1.2998,-1.2954,-1.3027,-1.3005,-1.2954,-1.2881,-1.2991,-1.3027,-1.3042,-1.2834,-1.2831,-1.2829,-1.2828,0,0,-1.3343,-1.3272,-1.3284,-1.3268,-1.3221,-1.3225,-1.3247,-1.3232,-1.3236,-1.3214,-1.323,-1.3231,-1.3183,-1.3171,-1.3124,-1.3149,-1.3245,-1.3093,-1.3092,-1.3123,-1.3324,-1.3362,-1.338,-1.3209,-1.3211,-1.3213,-1.3326,0,-1.3457,-1.3488,-1.3428,-1.3474,-1.348,-1.3398,-1.3417,-1.3391,-1.3356,-1.3357,-1.3318,-1.332,-1.3257,-1.3249,-1.3269,-1.3229,-1.3284,-1.322,-1.3223,-1.3224,-1.3233,-1.3399,-1.3439,-1.3547,-1.334,-1.3342,-1.3344,0,-1.3592,-1.3577,-1.3624,-1.3575,-1.3575,-1.3593,-1.3575,-1.3577,-1.3547,-1.3519,-1.3507,-1.3452,-1.3471,-1.3403,-1.3429,-1.3387,-1.3385,-1.3366,-1.3368,-1.3365,-1.329,-1.3399,-1.358,-1.3596,-1.3365,-1.3363,-1.3362,0,-1.3731,-1.3722,-1.3749,-1.3738,-1.3682,-1.3696,-1.3674,-1.364,-1.3635,-1.3621,-1.3617,-1.3605,-1.3598,-1.3591,-1.3535,-1.3491,-1.3568,-1.3495,-1.3546,-1.3547,-1.3564,-1.3563,-1.3746,-1.3566,-1.3565,-1.3565,-1.3565,0,-1.3863,-1.3894,-1.381,-1.3827,-1.386,-1.3792,-1.3828,-1.3797,-1.3768,-1.3778,-1.3708,-1.3719,-1.3644,-1.3648,-1.3605,-1.3633,-1.363,-1.3609,-1.3597,-1.3615,-1.3617,-1.3611,-1.3601,-1.3569,-1.3568,-1.3567,-1.3567,0,-1.4021,-1.3966,-1.399,-1.3936,-1.3923,-1.395,-1.3904,-1.3918,-1.3879,-1.3893,-1.3892,-1.3832,-1.3832,-1.3776,-1.3765,-1.3736,-1.3783,-1.3758,-1.3793,-1.3784,-1.3838,-1.3833,-1.4022,-1.4043,-1.3851,-1.3853,-1.3854,0,-1.4108,-1.413,-1.4079,-1.408,-1.4061,-1.4064,-1.4059,-1.3994,-1.3992,-1.396,-1.3978,-1.3973,-1.3965,-1.397,-1.3926,-1.3918,-1.3891,-1.3958,-1.3889,-1.3907,-1.3891,-1.389,-1.3892,-1.3972,-1.3974,-1.3976,-1.3978,0,-1.4267,-1.4239,-1.4234,-1.4221,-1.4217,-1.4203,-1.4185,-1.4191,-1.412,-1.4121,-1.4121,-1.4115,-1.4105,-1.4101,-1.4085,-1.4063,-1.4009,-1.4001,-1.4012,-1.4029,-1.4048,-1.4037,-1.383,-1.3996,-1.3994,-1.3993,-1.3992,-1.3991,-1.4391,-1.4407,-1.4374,-1.4371,-1.4351,-1.4336,-1.4347,-1.431,-1.4308,-1.4294,-1.4256,-1.4263,-1.4234,-1.4207,-1.419,-1.4194,-1.4161,-1.4178,-1.4181,-1.4186,-1.4196,-1.4049,-1.4192,-1.4191,-1.419,-1.419,-1.419,0,-1.4545,-1.452,-1.4519,-1.4496,-1.4495,-1.4445,-1.4423,-1.4425,-1.4431,-1.4409,-1.4403,-1.4403,-1.44,-1.4357,-1.4348,-1.4361,-1.4336,-1.4361,-1.4358,-1.4354,-1.4226,-1.4217,-1.4381,-1.4381,-1.4381,-1.4381,-1.4381,-1.4381,-1.4625,-1.465,-1.4619,-1.4634,-1.4609,-1.4614,-1.4606,-1.4593,-1.4574,-1.4578,-1.4575,-1.4547,-1.4516,-1.4505,-1.4501,-1.4488,-1.4488,-1.4521,-1.45,-1.4381,-1.4363,-1.4345,-1.4336,-1.4522,-1.4522,-1.4626,-1.4627,-1.4628]},{"header":{"parameterUnit":"m.s-1","parameterCategory":1,"la1":30.2991,"la2":30.254,"lo1":-89.0895,"lo2":-89.0444,"dy":0.0017,"dx":0.0017,"nx":28,"ny":28,"refTime":"2025-05-31T09:00:00:Z","depth":0,"parameterNumber":3,"parameterNumberName":"V-component_of_WINDS"},"data":[0,0,0,0,0,0,0,0,0,0,0,0,0,0,0,0,0,0,0,0,0,0,0,0,0,0,0,0,0,0,0,0,0,0,0,0,0,0,0,0,0,0,0,0,0,0,0,0,0,0,0,0,0,0,0,0,0,0,-0.9203,-0.9204,0,-0.9264,-0.9264,-0.9265,-0.9284,-0.9283,-0.9283,-0.9283,-0.9346,-0.9348,-0.935,0,0,0,0,0,0,0,0,0,0,0,0,0,-0.9105,-0.9107,-0.9203,-0.9204,-0.9205,-0.9263,-0.9264,-0.9265,-0.9284,-0.9283,-0.9283,-0.9283,-0.9345,-0.9348,-0.935,0,0,0,0,0,0,0,0,0,0,0,0,0,-0.9155,-0.9107,-0.9203,-0.9221,-0.9223,-0.9263,-0.9264,-0.9265,-0.9284,-0.9283,-0.9283,-0.9282,-0.9345,-0.9348,-0.935,-0.9378,0,0,-0.9359,-0.9361,0,0,0,0,0,0,0,0,-0.9152,-0.9158,-0.9218,-0.922,-0.9222,-0.9266,-0.9253,-0.9303,-0.9284,-0.9261,-0.9283,-0.9282,-0.932,-0.9325,-0.9337,-0.9381,-0.9383,-0.936,-0.9362,-0.9363,-0.9364,0,0,0,0,0,0,0,-0.9149,-0.9156,-0.9227,-0.9218,-0.9221,-0.9226,-0.9233,-0.9263,-0.9292,-0.9263,-0.9264,-0.9271,-0.9321,-0.9334,-0.9339,-0.9384,-0.936,-0.9362,-0.9364,-0.9365,-0.9453,-0.9454,0,0,0,0,0,0,-0.9142,-0.9153,-0.9225,-0.9229,-0.9185,-0.9229,-0.9236,-0.9252,-0.9292,-0.9297,-0.9271,-0.9272,-0.9329,-0.9335,-0.9341,-0.9376,-0.9363,-0.9366,-0.9367,-0.9453,-0.9453,-0.9454,0,0,0,0,0,0,-0.914,-0.9148,-0.9223,-0.9191,-0.9201,-0.9231,-0.9249,-0.9254,-0.9267,-0.9298,-0.9304,-0.9279,-0.9329,-0.9337,-0.9368,-0.9378,-0.9367,-0.937,-0.9452,-0.9453,-0.9454,-0.9445,0,0,0,0,0,0,-0.9137,-0.9147,-0.9158,-0.9191,-0.9203,-0.9249,-0.9249,-0.9255,-0.9272,-0.9273,-0.9307,-0.9313,-0.933,-0.9364,-0.9371,-0.9382,-0.9372,-0.9451,-0.9452,-0.9453,-0.9444,-0.9445,-0.9446,0,0,0,0,0,-0.9133,-0.9153,-0.9158,-0.9167,-0.9216,-0.9249,-0.9256,-0.9274,-0.9272,-0.9283,-0.9303,-0.9311,-0.9376,-0.9367,-0.9375,-0.9387,-0.9451,-0.9452,-0.9453,-0.9444,-0.9445,-0.9446,0,0,0,0,0,0,-0.912,-0.9158,-0.9164,-0.9195,-0.9219,-0.9252,-0.9266,-0.9275,-0.93,-0.93,-0.9322,-0.933,-0.936,-0.9377,-0.9366,-0.9415,-0.9413,-0.9417,-0.9404,-0.9405,-0.9406,-0.9401,-0.9374,0,0,0,0,0,-0.9121,-0.9144,-0.9176,-0.92,-0.9212,-0.9237,-0.9252,-0.9264,-0.929,-0.93,-0.9323,-0.9347,-0.9373,-0.939,-0.9415,-0.9447,-0.9455,-0.9459,-0.946,-0.946,-0.9463,-0.9481,-0.9483,-0.9458,-0.9458,-0.9458,0,0,-0.9123,-0.9146,-0.9159,-0.9198,-0.9218,-0.9242,-0.9245,-0.927,-0.9288,-0.9304,-0.9335,-0.9352,-0.9382,-0.9413,-0.9428,-0.9428,-0.9471,-0.9462,-0.9462,-0.9464,-0.9482,-0.9485,-0.9487,-0.9459,-0.9459,-0.9459,0,0,-0.9138,-0.9158,-0.9181,-0.92,-0.923,-0.9246,-0.9252,-0.9284,-0.9296,-0.9327,-0.9339,-0.9361,-0.9405,-0.9426,-0.9442,-0.9465,-0.9473,-0.9472,-0.9477,-0.9494,-0.9496,-0.9498,-0.9507,-0.9509,-0.9475,-0.9475,-0.9475,0,-0.9137,-0.9173,-0.9191,-0.9216,-0.9233,-0.9247,-0.927,-0.9289,-0.9325,-0.9337,-0.9336,-0.9391,-0.9412,-0.9449,-0.9454,-0.9466,-0.9474,-0.9469,-0.9494,-0.9496,-0.9498,-0.9507,-0.951,-0.9474,-0.9474,-0.9474,-0.9474,0,-0.917,-0.9195,-0.9209,-0.9244,-0.9262,-0.9286,-0.9308,-0.9325,-0.9335,-0.9352,-0.9384,-0.9409,-0.944,-0.945,-0.946,-0.9488,-0.9487,-0.949,-0.9488,-0.95,-0.9509,-0.9512,-0.9474,-0.9474,-0.9474,-0.9474,0,0,-0.918,-0.9224,-0.9229,-0.9245,-0.9278,-0.9298,-0.9322,-0.9352,-0.9366,-0.939,-0.9412,-0.9448,-0.9451,-0.9469,-0.9482,-0.9498,-0.9514,-0.9499,-0.95,-0.9501,-0.9547,-0.9545,-0.9548,-0.952,-0.9521,-0.9521,-0.9545,0,-0.92,-0.9244,-0.9261,-0.9297,-0.932,-0.9334,-0.9355,-0.9378,-0.9394,-0.9417,-0.9435,-0.9461,-0.9462,-0.9473,-0.9489,-0.9509,-0.9524,-0.9508,-0.9541,-0.9542,-0.9534,-0.9553,-0.9551,-0.9572,-0.9548,-0.9549,-0.9549,0,-0.923,-0.9254,-0.9292,-0.9322,-0.9333,-0.9352,-0.938,-0.9401,-0.9428,-0.9438,-0.9458,-0.9471,-0.9497,-0.9493,-0.9531,-0.9519,-0.9534,-0.9546,-0.9547,-0.9551,-0.9547,-0.9558,-0.9579,-0.9582,-0.9554,-0.9554,-0.9553,0,-0.9233,-0.9276,-0.9304,-0.9317,-0.9353,-0.9366,-0.9382,-0.9408,-0.9424,-0.9449,-0.9461,-0.9489,-0.9504,-0.9526,-0.9545,-0.954,-0.9581,-0.9579,-0.9591,-0.9591,-0.96,-0.9599,-0.9623,-0.9608,-0.9608,-0.9608,-0.9608,0,-0.9255,-0.9277,-0.9306,-0.9323,-0.9349,-0.9369,-0.9394,-0.9411,-0.9434,-0.9455,-0.9469,-0.9489,-0.9513,-0.9536,-0.9551,-0.958,-0.9587,-0.9597,-0.9601,-0.9596,-0.9595,-0.9607,-0.9606,-0.9609,-0.9608,-0.9608,-0.9608,0,-0.9264,-0.9284,-0.9315,-0.9347,-0.9355,-0.9373,-0.94,-0.9418,-0.9434,-0.9461,-0.9469,-0.9495,-0.9523,-0.9544,-0.958,-0.9591,-0.9621,-0.9625,-0.9612,-0.9614,-0.9626,-0.9625,-0.9659,-0.9665,-0.9645,-0.9645,-0.9645,0,-0.9276,-0.9294,-0.9327,-0.9342,-0.9357,-0.9381,-0.9398,-0.9418,-0.9435,-0.9467,-0.9481,-0.9509,-0.9533,-0.9577,-0.96,-0.9628,-0.9633,-0.9643,-0.9637,-0.9632,-0.9634,-0.9633,-0.9635,-0.9644,-0.9644,-0.9644,-0.9644,0,-0.9296,-0.9305,-0.9329,-0.9356,-0.9375,-0.9398,-0.9421,-0.9432,-0.9456,-0.9475,-0.9503,-0.9522,-0.9558,-0.9587,-0.9617,-0.9634,-0.9643,-0.9646,-0.965,-0.9646,-0.9638,-0.9643,-0.9615,-0.9645,-0.9645,-0.9645,-0.9645,-0.9645,-0.9308,-0.9325,-0.935,-0.9376,-0.9395,-0.9416,-0.9434,-0.9453,-0.9476,-0.9507,-0.9518,-0.9547,-0.9573,-0.9614,-0.9632,-0.9655,-0.9656,-0.9662,-0.9664,-0.9665,-0.9665,-0.9633,-0.9661,-0.9661,-0.9661,-0.9661,-0.9661,0,-0.9329,-0.9347,-0.937,-0.9401,-0.9421,-0.9427,-0.9453,-0.947,-0.9495,-0.9518,-0.9542,-0.9574,-0.9602,-0.9626,-0.9655,-0.9669,-0.9675,-0.9676,-0.9676,-0.968,-0.9663,-0.9656,-0.9672,-0.9672,-0.9672,-0.9672,-0.9672,-0.9672,-0.9343,-0.9371,-0.9383,-0.9421,-0.9438,-0.9467,-0.9481,-0.95,-0.9519,-0.9554,-0.9577,-0.9593,-0.9617,-0.9647,-0.9673,-0.968,-0.969,-0.9691,-0.9699,-0.9682,-0.9681,-0.968,-0.9674,-0.9693,-0.9693,-0.9714,-0.9714,-0.9714]}]]